Powrót do katalogu

THORAD AGENA D DEB

AktywnySSO
NORAD 4992·DEBRIS·🇺🇸 United States

Wystrzelony Apr 8, 1970 z Vandenberg Space Force Base

Loading…

Następne Przeloty (najbliższe 24 godziny)

TLE

ŚwieżeSource: Space-Track

Epoka: Sep 14, 2026, 13:22 UTC

1 04992U 70025HN  26257.55721117  .00000078  00000-0  16467-3 0  9991
2 04992 100.0982 111.9970 0015698 129.0784 259.6708 13.61171219795352

Śledź THORAD AGENA D DEB w czasie rzeczywistym z AllMySat

Download on the App Store